Weather in Maryanovsky

Russia / Omsk Oblast     54°55′15″N   72°31′42″E
temp.,
°C
wind,
m/s
gust,
m/s
humid.,
%
clouds,
%
prec.,
mm/h
press.,
hPa
HPBL,
m
17 may, mon
mon1700:00+19n22596 0.0 101619
03:00+17n016445 0.0 101711
06:00+17sw23645 0.0 101727
09:00+24sw594512 0.1 1016447
12:00+30w67288 0.1 10151103
15:00+32wnw811215 0.0 10143681
18:00+31wnw510245 0.0 10133947
21:00+23wnw34420 0.0 101246
18 may, tue
tue1800:00+21w47411 0.0 101193
03:00+18nw335271 0.0 101128
06:00+17nw22635 0.0 101034
09:00+21nw585264 0.0 1011697
12:00+25wnw68425 0.0 10101695
15:00+26nw71033100 0.0 10093173
18:00+18ese1161100 7.2 100955
21:00+16nnw5983100 2.1 1010448
19 may, wed
wed1900:00+13nne6118519 2.1 1013617
03:00+10nne6118691 0.0 1014548
06:00+9nne5118660 0.0 1017573
09:00+13nne795649 0.0 10171564
12:00+16nne784061 0.0 10182198
15:00+17n793872 0.0 10182421
18:00+16n6103776 0.0 10192378
21:00+12n365190 0.0 1020111
20 may, thu
thu2000:00+10n512478 0.0 1021368
03:00+7n4116064 0.0 1022332
06:00+5nne476389 0.0 1024237
09:00+9n34417 0.0 1025799
12:00+12nnw343531 0.0 10241290
15:00+16nw5741100 0.0 10221827
18:00+13ssw486095 0.2 1020330
21:00+16w6135799 0.0 1017302
21 may, fri
fri2100:00+17wnw71754100 0.0 1016449
03:00+15wnw356598 0.0 1016100
06:00+15wnw513645 0.0 1017303
09:00+19nnw57585 0.0 1018498
12:00+24nnw45475 0.0 10191158
15:00+27nw46385 0.0 10181768
18:00+27wnw57364 0.0 10182738
21:00+21w46562 0.0 101884